Location: Utrecht
(52.0830°N, 5.1330°E)
Time: 16:54:52
(UTC+02:00)

Daily predictions for brighter satellites

Satellite Brightness Start Highest point End
(mag) Time Altitude Azimuth Time Altitude Azimuth Time Altitude Azimuth
Cosmos 1346 Rocket 4.0 21:15:19 10° SSW 21:19:18 50° WNW 21:23:19 10° N
Cosmos 2154 Rocket 4.0 21:13:42 10° S 21:19:53 67° E 21:26:04 10° NNE
Cosmos 2184 Rocket 4.3 21:17:23 10° SSW 21:23:33 74° WNW 21:29:45 10° N
Cosmos 407 Rocket 4.4 21:20:38 10° NNW 21:25:18 33° NE 21:29:55 10° ESE
Cosmos 2219 Rocket 2.5 21:20:50 10° S 21:26:09 43° ESE 21:31:28 10° NE
Cosmos 2237 Rocket 3.2 21:22:08 10° SSE 21:26:31 24° ESE 21:30:56 10° NE
Cosmos 2322 Rocket 3.9 21:22:37 10° WSW 21:27:57 39° NW 21:33:17 10° NNE
Cosmos 2278 Rocket 2.3 21:24:03 10° NNW 21:29:45 73° ENE 21:35:26 10° SE
CZ-3B R/B 2.6 21:28:14 10° WNW 21:29:54 33° SSW 21:31:21 10° SE
H-2A R/B 2.9 21:25:58 10° SE 21:30:24 32° ENE 21:34:47 10° N
Cosmos 2228 Rocket 3.8 21:26:50 10° SSE 21:30:46 33° E 21:34:45 10° NNE
Cosmos 1515 Rocket 4.3 21:28:20 10° SSE 21:32:24 35° E 21:36:29 10° NNE
Cosmos 44 3.4 21:28:26 10° SW 21:33:00 81° NW 21:37:54 10° NE
Cosmos 2221 4.0 21:29:32 10° SW 21:33:35 41° WNW 21:37:40 10° N
ERS-1 Rocket 3.9 21:30:37 10° SE 21:35:04 33° ENE 21:39:32 10° N
Helios 1A 4.5 21:32:53 10° ESE 21:36:07 22° ENE 21:39:23 10° N
ATLAS 5 CENTAUR R/B 3.7 21:32:53 10° NW 21:37:29 28° NNE 21:42:34 10° ENE
Cosmos 1408 2.8 21:36:23 10° N 21:39:59 53° ENE 21:43:35 10° SSE
Cosmos 1455 2.2 21:36:53 10° S 21:40:40 61° E 21:44:30 10° NNE
NOAA 11 4.2 21:35:45 10° SSE 21:41:15 87° ENE 21:46:48 10° NNW
Cosmos 2341 Rocket 4.1 21:35:02 10° S 21:41:19 67° E 21:47:35 10° NNE
Cosmos 1892 3.6 21:37:38 10° NNW 21:41:27 53° W 21:45:14 10° S
USA 234 3.7 21:35:34 10° E 21:41:59 61° N 21:48:25 10° WNW
USA 245 4.3 21:41:00 11° E 21:42:11 14° ENE 21:43:30 10° NNE
ERS-2 4.1 21:40:38 10° SSW 21:43:53 29° W 21:47:10 10° NW
SJ 16-02 4.5 21:42:30 10° W 21:45:33 18° NW 21:48:36 10° N
Cosmos 962 Rocket 4.4 21:41:08 10° S 21:47:14 75° E 21:53:26 10° NNE
Cosmos 2218 Rocket 4.4 21:42:13 10° SSE 21:48:11 45° E 21:54:13 10° NNE
Cosmos 1328 Rocket 3.5 21:48:13 10° S 21:52:37 75° E 21:57:05 10° NNE
Resurs 01 Rocket 2.6 21:49:18 10° S 21:53:36 48° W 21:57:56 10° NNW
Cosmos 44 Rocket 3.5 21:50:19 10° SW 21:55:08 77° NW 22:00:09 10° NE
SL-08 RB Rocket 4.1 21:52:16 12° SE 21:56:11 47° ENE 22:00:30 10° N
Genesis I 4.3 21:52:45 10° NW 21:56:38 42° SW 22:00:29 10° SSE
NOSS 0 Rocket 4.1 21:52:26 10° S 21:58:19 48° ESE 22:04:16 10° NE
Cosmos 1470 Rocket 3.7 21:53:55 10° NNW 21:58:19 78° W 22:02:44 10° S
Cosmos 2366 rocket 4.3 21:55:28 10° SSE 22:01:24 49° E 22:07:27 10° NNE
Cosmos 2098 Rocket 3.6 21:57:39 10° SSE 22:01:48 35° E 22:05:12 10° NNE
NOSS 2-1 (C) 3.2 21:59:12 10° SW 22:02:54 83° SE 22:07:18 10° NE
NOSS 2-1 (D) 3.2 22:00:10 10° SW 22:03:53 85° SE 22:08:18 10° NE
ATLAS 2AS CENTAUR R/B 3.6 21:57:40 10° NW 22:05:22 53° WSW 22:12:29 10° SSE
Thor Agena Rocket 4.4 22:03:06 10° N 22:08:13 56° WNW 22:13:21 10° SW
Cosmos 405 Rocket 4.2 22:07:32 17° ESE 22:08:38 19° E 22:11:27 10° NE
ATLAS CENTAUR R/B 1.4 22:06:21 10° SSW 22:09:53 44° SE 22:13:37 10° NE
SL-8 Rocket 4.0 22:04:56 10° S 22:11:12 73° E 22:17:29 10° NNE
Cosmos 1339 Rocket 4.4 22:06:42 10° N 22:12:48 73° ENE 22:18:33 12° SSE
Aureole 2 3.9 22:12:08 10° SSW 22:15:05 66° ESE 22:18:02 10° NNE
Cosmos 1190 Rocket 4.0 22:10:18 10° NNW 22:15:38 74° ENE 22:19:37 18° SSE
SL-16 R/B 3.2 22:12:37 16° SE 22:15:43 25° ESE 22:20:12 10° NE
GEOS 3 Rocket 4.5 22:15:15 10° ENE 22:19:51 28° ESE 22:24:22 10° S
Cosmos 1943 Rocket 3.9 22:18:38 10° NNW 22:22:54 22° NE 22:27:10 10° E
Cosmos 1825 2.7 22:19:37 10° NNW 22:23:22 57° W 22:26:59 11° S
Cosmos 1140 Rocket 3.9 22:18:24 10° NNW 22:23:28 48° ENE 22:26:40 21° ESE
ARGOS 3.2 22:21:08 12° SSE 22:26:12 80° WSW 22:31:36 10° NNW
Cosmos 1933 Rocket 4.4 22:22:45 10° NNW 22:27:01 49° W 22:31:13 10° SSW
Cosmos 1954 Rocket 4.3 22:23:58 10° NNW 22:29:07 54° ENE 22:32:14 23° SE
Cosmos 405 2.9 22:26:47 10° NNW 22:30:20 85° ENE 22:32:17 25° SSE
MetOp-B 4.2 22:26:46 14° SSE 22:31:29 80° WSW 22:36:53 10° NNW
Terra 2.8 22:29:35 21° ESE 22:31:59 33° ENE 22:36:14 10° N
CZ-2C R/B 4.3 22:30:12 16° E 22:32:30 23° ENE 22:36:17 10° N
Cosmos 2344 4.4 22:29:24 17° SSE 22:33:39 27° ESE 22:40:16 10° NE
NOSS 2-1 (E) 3.8 22:30:34 10° WSW 22:34:19 65° NW 22:38:58 10° NE
NOSS 3-4 (A) 3.8 22:29:06 10° NW 22:36:00 79° SW 22:41:13 21° SE
NOSS 3-4 (C) 3.8 22:29:11 10° NW 22:36:06 80° SW 22:41:18 22° SE
Cosmos 2297 3.7 22:34:58 10° NNW 22:40:42 84° WSW 22:44:21 23° SSE
Lacrosse 5 2.4 22:36:14 10° WNW 22:41:14 56° NNE 22:45:14 16° E
Cosmos 1151 Rocket 3.7 22:37:31 10° SSW 22:41:42 54° WNW 22:45:56 10° N
Cosmos 2360 Rocket 4.4 22:37:30 10° W 22:42:18 28° NW 22:47:07 10° NNE
Cosmos 1980 3.6 22:36:37 10° SSW 22:42:19 83° ESE 22:48:02 10° NNE
Cosmos 864 Rocket 4.4 22:37:09 10° S 22:43:17 88° E 22:49:28 10° N
Cosmos 1869 3.4 22:40:53 10° SSW 22:44:54 76° WNW 22:48:57 10° N
SPOT 5 2.7 22:42:24 26° SSE 22:44:57 73° ENE 22:49:24 10° NNW
DMSP B5D2-2 4.4 22:40:18 10° NNE 22:45:21 45° E 22:48:04 25° SSE
Cosmos 1707 Rocket 4.0 22:45:11 30° SE 22:46:42 42° E 22:50:48 10° NNE
NOSS 3-3 (A) 4.1 22:41:16 10° SW 22:47:29 84° NW 22:54:27 10° NE
NOSS 3-3 (C) 4.1 22:41:22 10° SW 22:47:35 84° NW 22:54:33 10° NE
USA 267 3.8 22:41:56 10° ENE 22:47:40 32° SE 22:53:23 10° SSW
Meteor 2-10 Rocket 3.7 22:43:15 10° S 22:48:59 80° E 22:54:52 10° NNE
Cosmos 1869 Rocket 3.5 22:44:49 10° NNW 22:49:14 85° W 22:51:41 26° S
Cosmos 1633 4.1 22:46:27 10° NNE 22:49:17 21° ENE 22:49:42 21° ENE
Cosmos 2369 Rocket 3.2 22:44:31 10° NNW 22:49:48 36° NE 22:53:06 20° E
Cosmos 2333 Rocket 2.7 22:44:51 10° SW 22:50:28 63° NW 22:56:06 10° NNE
Helios 1B rocket 2.9 22:49:29 10° NNE 22:53:25 41° E 22:54:19 35° SE
SL-19 R/B 4.2 22:50:19 26° SSE 22:53:38 79° ENE 22:59:16 10° NNW
Meteor 1-4 Rocket 4.0 22:51:28 10° NNE 22:54:15 21° ENE 22:54:35 21° ENE
COSMOS 2428 4.1 22:50:34 10° WSW 22:55:58 41° NW 23:01:23 10° NNE
USA 81 4.2 22:51:25 10° N 22:56:42 72° W 23:00:35 19° S
BREEZE-M DEB (TANK) 2.6 22:54:35 10° WSW 22:56:09 36° SW 22:56:09 36° SW
BREEZE-M DEB (TANK) 1.8 22:52:44 10° W 22:57:37 55° S 22:57:54 52° SSE
SPOT 1/Viking Rocket 3.5 22:58:17 27° SSE 23:01:15 88° WSW 23:06:32 10° NNW
Cosmos 1733 Rocket 3.6 22:57:35 10° N 23:01:50 44° ENE 23:03:02 35° ESE
CARTOSAT-1 3.7 23:03:12 38° SE 23:04:39 62° ENE 23:08:56 10° N
Cosmos 407 Rocket 4.2 23:02:34 10° NW 23:07:29 48° WSW 23:10:28 22° S
H-2A R/B 2.9 23:05:58 16° SSW 23:09:44 44° W 23:14:30 10° NNW
Cosmos 2237 Rocket 2.4 23:04:27 10° SW 23:10:04 71° WNW 23:15:44 10° NNE
Cosmos 2219 Rocket 3.4 23:04:46 10° WSW 23:10:09 43° NW 23:15:32 10° NNE
Helios 1A 3.6 23:09:18 26° SSW 23:11:24 52° W 23:15:32 10° NNW
CZ-2C R/B 3.9 23:07:32 10° NE 23:11:41 22° E 23:12:04 22° E
Cosmos 1000 Rocket 4.4 23:05:51 10° N 23:12:04 87° E 23:15:31 29° S
Cosmos 614 Rocket 4.0 23:07:49 10° NNW 23:13:04 76° WSW 23:15:22 34° S
Cosmos 2278 Rocket 4.0 23:08:54 10° NW 23:13:18 23° WSW 23:17:41 10° SSW
ERS-1 Rocket 3.9 23:10:14 17° SSW 23:13:45 44° W 23:18:34 10° NNW
Cosmos 1441 Rocket 3.1 23:14:38 38° SSW 23:15:58 81° WNW 23:19:45 10° NNE
Meteor 1-29 3.2 23:15:20 10° NNE 23:18:23 52° E 23:18:23 52° E
USA 245 4.2 23:18:32 22° WSW 23:18:42 22° W 23:20:41 10° NW
SL-8 R/B 4.3 23:14:59 10° SW 23:18:38 36° S 23:18:38 36° S
Cosmos 1371 Rocket 4.3 23:14:50 10° SSW 23:20:09 70° WNW 23:25:33 10° NNE
Cosmos 2242 Rocket 4.1 23:20:24 38° ESE 23:20:41 39° E 23:24:48 10° NNE
Cosmos 1821 Rocket 4.0 23:19:13 29° S 23:22:35 69° E 23:28:52 10° NNE
RESURS DK-1 3.4 23:19:08 10° NNW 23:23:02 36° NE 23:24:06 31° E
ATLAS 5 CENTAUR R/B 2.7 23:17:40 10° NW 23:23:13 58° NE 23:26:31 27° ESE
Cosmos 389 Rocket 4.3 23:21:39 10° NNE 23:24:03 19° ENE 23:24:03 19° ENE
Meteor 1-20 Rocket 4.3 23:19:03 10° N 23:24:28 57° ENE 23:26:16 39° SE
USA 234 3.2 23:21:08 28° ESE 23:24:52 88° SSW 23:31:28 10° WNW
Cosmos 676 Rocket 4.5 23:21:01 10° NNW 23:26:09 53° WSW 23:28:25 31° SSW
Cosmos 2123 Rocket 4.0 23:26:54 10° N 23:33:16 77° ENE 23:35:52 38° SSE
SAR-Lupe-4 3.9 23:33:39 52° ENE 23:33:39 52° ENE 23:37:07 10° N
Cosmos 1437 Rocket 2.6 23:31:34 10° NNW 23:35:26 82° WSW 23:35:51 69° S
IGS 5A 3.7 23:39:04 48° SSW 23:39:59 62° WSW 23:44:10 10° NNW
BREEZE M DEB (TANK) 3.5 23:26:52 10° WSW 23:40:11 70° S 23:42:12 36° ESE
Cosmos 2056 Rocket 4.1 23:36:30 10° SW 23:41:51 60° WNW 23:47:13 10° NNE
Cosmos 1452 Rocket 3.4 23:41:13 45° S 23:42:44 68° ESE 23:47:58 10° NNE
Cosmos 405 Rocket 3.7 23:42:40 27° SW 23:44:20 45° WNW 23:48:10 10° N
ATLAS CENTAUR R/B 3.0 23:45:31 10° W 23:48:58 33° NNW 23:52:38 10° NNE
Cosmos 1908 Rocket 3.6 23:49:30 10° N 23:53:55 63° ENE 23:54:14 61° E
